User: anonymous   Login
Location: Taipo
(41.0000°S, 175.9500°E)
Time: 12:12:07
(UTC+00:00)
Language:

NOAA 19 - Orbit

View from above orbital plane
View from above orbital plane
View from above satellite
View from above satellite

Ground track
Ground track

The orbit is defined by the following mean orbital elements,

1 33591U          26110.21692816 +.00000000 +00000-0 +33714-4 0 00001
2 33591  98.9544 181.0431 0013654 190.0190 170.0712 14.13464623    01
Epoch (UTC): 20 April 2026 05:12:22
Eccentricity: 0.0013654
inclination: 98.9544°
perigee height: 838 km
apogee height: 857 km
right ascension of ascending node: 181.0431°
argument of perigee: 190.0190°
revolutions per day: 14.13464623
mean anomaly at epoch: 170.0712°

The dashed part of the orbit path shows where the satellite is in the earth's shadow,  

DLR